Weather History for K6R3 - March, 2013

Change the Weather History Date:

Sunday, March 17, 2013

  Actual Average (KCXO) Record (KCXO)
Temperature  
Mean Temperature 70 °F -  
Max Temperature 81 °F 69 °F 84 °F (2013)
Min Temperature 58 °F 47 °F 33 °F (2005)
Cooling Degree Days 4    
Growing Degree Days 20 (Base 50)    
Moisture  
Dew Point 61 °F    
Average Humidity 79    
Maximum Humidity 93    
Minimum Humidity 49    
Precipitation  
Precipitation 0.00 in - - ()
Sea Level Pressure  
Sea Level Pressure 29.81 in    
Wind  
Wind Speed 6 mph (South)    
Max Wind Speed 17 mph    
Max Gust Speed 24 mph    
Averages and records for this station are not official NWS values.
T = Trace of Precipitation, MM = Missing Value Source: NWS Daily Summary

Daily Weather History Graph

Daily Weather History Graph

Search for Another Location

Airport or City:

Trip Planner

Search our weather history database for the weather conditions in past years. The results will help you decide how hot, cold, wet, or windy it might be!

Date:

Astronomy

Mar. 17, 2013 Rise Set
Actual Time 7:27 AM CDT 7:29 PM CDT
Civil Twilight 7:03 AM CDT 7:53 PM CDT
Nautical Twilight 6:35 AM CDT 8:21 PM CDT
Astronomical Twilight 6:07 AM CDT 8:49 PM CDT
Moon 11:03 AM CDT (3/17) 12:16 AM CDT (3/17)
Length of Visible Light 12h 50m
Length of Day
12h 02m
Waxing Crescent, 31% of the Moon is Illuminated
Mar 17
Waxing Crescent
Mar 19
First Quarter
Mar 27
Full
Apr 2
Last Quarter
Apr 10
New

Hourly Weather History & Observations

Time (CDT) Temp. Heat Index Dew Point Humidity Pressure Visibility Wind Dir Wind Speed Gust Speed Precip Events Conditions
12:15 AM 61.9 °F - 58.5 °F 89% 29.90 in - South 5.8 mph - N/A   Unknown
12:35 AM 61.9 °F - 58.5 °F 89% 29.89 in - South 5.8 mph - N/A   Unknown
12:55 AM 61.7 °F - 58.5 °F 89% 29.89 in - South 5.8 mph - N/A   Unknown
1:15 AM 61.7 °F - 58.3 °F 89% 29.88 in - South 5.8 mph - N/A   Unknown
1:35 AM 61.7 °F - 58.3 °F 89% 29.88 in - South 5.8 mph - N/A   Unknown
1:55 AM 61.2 °F - 58.1 °F 90% 29.87 in - South 5.8 mph - N/A   Unknown
2:15 AM 61.0 °F - 58.1 °F 90% 29.86 in - South 5.8 mph - N/A   Unknown
2:35 AM 61.0 °F - 58.1 °F 90% 29.86 in - South 5.8 mph - N/A   Mostly Cloudy
2:55 AM 61.2 °F - 58.3 °F 90% 29.85 in - South 4.6 mph - N/A   Mostly Cloudy
3:15 AM 61.7 °F - 58.5 °F 89% 29.84 in - South 5.8 mph - N/A   Unknown
3:35 AM 62.1 °F - 58.8 °F 89% 29.84 in - SSE 3.5 mph - N/A   Mostly Cloudy
3:55 AM 61.3 °F - 58.5 °F 90% 29.84 in - Calm Calm - N/A   Unknown
4:15 AM 59.9 °F - 57.4 °F 91% 29.84 in - Calm Calm - N/A   Unknown
4:35 AM 59.4 °F - 57.0 °F 92% 29.83 in - Calm Calm - N/A   Unknown
4:55 AM 58.1 °F - 55.9 °F 93% 29.83 in - Calm Calm - N/A   Unknown
5:15 AM 59.0 °F - 56.8 °F 93% 29.83 in - Calm Calm - N/A   Overcast
5:35 AM 59.4 °F - 57.4 °F 93% 29.84 in - Calm Calm - N/A   Overcast
5:55 AM 59.9 °F - 57.9 °F 93% 29.84 in - Calm Calm - N/A   Overcast
6:15 AM 60.1 °F - 58.1 °F 93% 29.85 in - Calm Calm - N/A   Overcast
6:35 AM 60.3 °F - 58.3 °F 93% 29.85 in - Calm Calm - N/A   Overcast
6:55 AM 60.4 °F - 58.5 °F 93% 29.85 in - Calm Calm - N/A   Overcast
7:15 AM 60.3 °F - 58.3 °F 93% 29.85 in - Calm Calm - N/A   Overcast
7:35 AM 60.3 °F - 58.3 °F 93% 29.85 in - Calm Calm - N/A   Overcast
7:55 AM 60.8 °F - 58.6 °F 93% 29.86 in - Calm Calm - N/A   Overcast
8:15 AM 61.5 °F - 59.5 °F 93% 29.86 in - SSE 3.5 mph - N/A   Overcast
8:35 AM 62.1 °F - 60.1 °F 93% 29.86 in - Calm Calm - N/A   Overcast
8:55 AM 62.8 °F - 60.8 °F 93% 29.86 in - SSE 3.5 mph - N/A   Overcast
9:15 AM 64.6 °F - 62.6 °F 93% 29.87 in - Calm Calm - N/A   Overcast
9:35 AM 66.6 °F - 62.8 °F 88% 29.87 in - SSE 3.5 mph - N/A   Overcast
9:55 AM 68.4 °F - 63.7 °F 85% 29.87 in - SSE 6.9 mph - N/A   Overcast
10:15 AM 69.3 °F - 63.7 °F 82% 29.87 in - South 6.9 mph - N/A   Overcast
10:35 AM 72.0 °F - 63.7 °F 75% 29.86 in - South 9.2 mph - N/A   Overcast
10:55 AM 73.9 °F - 62.6 °F 68% 29.86 in - South 12.7 mph 18.4 mph N/A   Overcast
11:15 AM 76.1 °F - 62.2 °F 62% 29.86 in - South 11.5 mph 17.3 mph N/A   Mostly Cloudy
11:35 AM 76.5 °F - 61.5 °F 60% 29.85 in - SW 8.1 mph 17.3 mph N/A   Overcast
11:55 AM 75.6 °F - 62.2 °F 63% 29.85 in - SSW 8.1 mph - N/A   Mostly Cloudy
12:15 PM 76.1 °F - 59.9 °F 57% 29.84 in - South 11.5 mph 19.6 mph N/A   Scattered Clouds
12:35 PM 79.9 °F - 59.2 °F 49% 29.83 in - South 16.1 mph 23.0 mph N/A   Scattered Clouds
12:55 PM 79.7 °F - 59.2 °F 49% 29.83 in - SSW 15.0 mph 21.9 mph N/A   Scattered Clouds
1:15 PM 78.4 °F - 60.1 °F 53% 29.82 in - SSW 11.5 mph 16.1 mph N/A   Overcast
1:35 PM 81.0 °F 81.9 °F 62.1 °F 52% 29.81 in - South 12.7 mph 21.9 mph N/A   Mostly Cloudy
1:55 PM 78.1 °F - 62.6 °F 59% 29.80 in - South 17.3 mph 21.9 mph N/A   Mostly Cloudy
2:15 PM 78.3 °F - 62.8 °F 59% 29.78 in - South 15.0 mph 20.7 mph N/A   Overcast
2:35 PM 79.5 °F - 63.3 °F 58% 29.77 in - SSE 8.1 mph 21.9 mph N/A   Overcast
2:55 PM 80.6 °F 82.0 °F 63.7 °F 56% 29.76 in - SSE 10.4 mph 18.4 mph N/A   Mostly Cloudy
3:15 PM 79.5 °F - 63.5 °F 58% 29.75 in - SSE 10.4 mph 24.2 mph N/A   Mostly Cloudy
3:35 PM 80.1 °F 81.5 °F 63.1 °F 56% 29.74 in - SSE 10.4 mph 23.0 mph N/A   Mostly Cloudy
3:55 PM 79.0 °F - 63.3 °F 59% 29.74 in - SSE 11.5 mph 23.0 mph N/A   Mostly Cloudy
4:15 PM 77.7 °F - 63.3 °F 61% 29.73 in - South 9.2 mph 23.0 mph N/A   Overcast
4:35 PM 78.8 °F - 63.5 °F 59% 29.72 in - South 15.0 mph 20.7 mph N/A   Mostly Cloudy
4:55 PM 77.7 °F - 63.3 °F 61% 29.72 in - SSE 10.4 mph 16.1 mph N/A   Mostly Cloudy
5:15 PM 77.7 °F - 63.1 °F 61% 29.71 in - South 17.3 mph 23.0 mph N/A   Mostly Cloudy
5:35 PM 75.4 °F - 63.0 °F 65% 29.71 in - South 11.5 mph 19.6 mph N/A   Scattered Clouds
5:55 PM 75.7 °F - 63.0 °F 64% 29.72 in - South 15.0 mph 20.7 mph N/A   Scattered Clouds
6:15 PM 75.2 °F - 63.5 °F 67% 29.72 in - South 16.1 mph 19.6 mph N/A   Mostly Cloudy
6:35 PM 73.4 °F - 63.5 °F 71% 29.72 in - South 12.7 mph 19.6 mph N/A   Scattered Clouds
6:55 PM 72.9 °F - 63.5 °F 72% 29.74 in - South 16.1 mph 21.9 mph N/A   Scattered Clouds
7:15 PM 71.8 °F - 63.5 °F 75% 29.73 in - SSE 11.5 mph 18.4 mph N/A   Scattered Clouds
7:35 PM 70.7 °F - 63.5 °F 78% 29.74 in - South 10.4 mph - N/A   Scattered Clouds
7:55 PM 70.2 °F - 63.5 °F 79% 29.74 in - South 9.2 mph - N/A   Scattered Clouds
8:15 PM 69.4 °F - 63.5 °F 81% 29.74 in - South 13.8 mph - N/A   Scattered Clouds
8:35 PM 68.9 °F - 63.5 °F 83% 29.75 in - South 10.4 mph - N/A   Clear
8:55 PM 68.5 °F - 63.5 °F 84% 29.76 in - South 9.2 mph - N/A   Scattered Clouds
9:15 PM 68.0 °F - 63.5 °F 85% 29.76 in - South 6.9 mph - N/A   Scattered Clouds
9:35 PM 67.5 °F - 63.3 °F 87% 29.77 in - South 5.8 mph - N/A   Unknown
9:55 PM 67.1 °F - 63.1 °F 87% 29.78 in - South 6.9 mph - N/A   Unknown
10:15 PM 66.4 °F - 63.0 °F 89% 29.78 in - South 4.6 mph - N/A   Unknown
10:35 PM 65.8 °F - 62.8 °F 90% 29.79 in - South 4.6 mph - N/A   Unknown
10:55 PM 66.0 °F - 63.0 °F 90% 29.78 in - SSE 4.6 mph - N/A   Unknown
11:15 PM 65.7 °F - 63.0 °F 91% 29.78 in - SSE 3.5 mph - N/A   Unknown
11:35 PM 66.0 °F - 63.5 °F 92% 29.78 in - South 8.1 mph - N/A   Overcast
11:55 PM 66.2 °F - 63.5 °F 91% 29.78 in - South 4.6 mph - N/A   Mostly Cloudy